View from above orbital plane
|
View from above satellite
|
Ground track
|
The orbit data is extracted from the following two-line orbital elements,
1 00058U 60013A 21057.90708765 .00000082 00000-0 -14671-5 0 9995
2 00058 28.3259 243.7215 0165046 15.8759 344.6883 13.46325526972938
Epoch (UTC): | 26 February 2021 21:46:12 |
Eccentricity: | 0.0165046 |
inclination: | 28.3259° |
perigee height: | 962 km |
apogee height: | 1209 km |
right ascension of ascending node: | 243.7215° |
argument of perigee: | 15.8759° |
revolutions per day: | 13.46325526 |
mean anomaly at epoch: | 344.6883° |
orbit number at epoch: | 97293 |
The dashed part of the orbit path shows where the satellite is in the earth's shadow,
|
|